Terug naar catalogus

STARLINK-4102

ActiefCommunicatieVLEO
NORAD 53143·PAYLOAD·🇺🇸 United States

Gelanceerd Jul 17, 2022 vanaf Cape Canaveral Space Force Station

Loading…

Volgende Passages (komende 24 uur)

TLE

VersSource: CelesTrak SupGP

Epoch: Sep 14, 2026, 21:21 UTC

1 53143C 22083M   26257.89006944  .00312390  00000+0  78435-2 0  2576
2 53143  53.1608  36.2301 0000989  65.1368  54.2858 15.39271892    11

Volg STARLINK-4102 in realtime met AllMySat

Download on the App Store